OK1UOJ Weather Reports


Display with metric or nautical units.
time (UTC)temp
F
wind
direction
speed
MPH
gust
MPH
rain 1hr
in
rain 24hr
in
rain mn
in
humidity
%
barometer
mb
20260506155306 62 318 4.0 5.0 0.00 0.00 0.00 10 1006.8
20260506155300 62 318 4.0 5.0 0.00 0.00 0.00 10 1006.8
20260506154822 63 321 4.0 7.0 0.00 0.00 0.00 10 1006.6
20260506154344 63 308 4.0 5.0 0.00 0.00 0.00 10 1006.4
20260506153911 64 319 4.0 7.0 0.00 0.00 0.00 10 1006.6
20260506153906 64 319 4.0 7.0 0.00 0.00 0.00 10 1006.6
20260506153428 65 334 3.0 6.0 0.00 0.00 0.00 10 1006.5
20260506152955 65 329 2.0 5.0 0.00 0.00 0.00 10 1006.6
20260506152950 65 329 2.0 5.0 0.00 0.00 0.00 10 1006.6
20260506152517 66 339 1.0 2.0 0.00 0.00 0.00 10 1006.6
20260506152513 66 339 1.0 2.0 0.00 0.00 0.00 10 1006.6
20260506151601 66 212 1.0 2.0 0.00 0.00 0.00 10 1006.7
20260506151124 66 180 2.0 3.0 0.00 0.00 0.00 10 1006.7
20260506151119 66 180 2.0 3.0 0.00 0.00 0.00 10 1006.7
20260506150203 66 320 2.0 3.0 0.00 0.00 0.00 10 1006.6
20260506145730 67 344 2.0 3.0 0.00 0.00 0.00 10 1006.6
20260506145725 67 344 2.0 3.0 0.00 0.00 0.00 10 1006.6
20260506144814 67 315 1.0 3.0 0.00 0.00 0.00 10 0.1
20260506144809 67 315 1.0 3.0 0.00 0.00 0.00 10 1006.8
20260506144331 67 309 2.0 4.0 0.00 0.00 0.00 10 1006.9
20260506142942 71 293 1.0 5.0 0.00 0.00 0.00 92 1007.1
20260506142459 71 167 1.0 2.0 0.00 0.00 0.00 83 1007.1
20260506142021 71 183 2.0 3.0 0.00 0.00 0.00 84 1007.1
20260506141543 71 178 3.0 4.0 0.00 0.00 0.00 86 1007.1
20260506141104 71 162 3.0 5.0 0.00 0.00 0.00 91 1007.2
20260506140630 71 182 3.0 4.0 0.00 0.00 0.00 87 1007.2
20260506140626 71 182 3.0 4.0 0.00 0.00 0.00 87 1007.2
20260506140148 71 176 4.0 7.0 0.00 0.00 0.00 83 1007.1
20260506135714 71 167 4.0 9.0 0.00 0.00 0.00 77 1007.1
20260506135709 71 167 4.0 9.0 0.00 0.00 0.00 77 1007.1
20260506135231 71 159 5.0 9.0 0.00 0.00 0.00 70 1007.2
20260506134753 71 153 6.0 10.0 0.00 0.00 0.00 75 1007.3
20260506134315 71 156 7.0 10.0 0.00 0.00 0.00 73 1007.3
20260506132003 71 109 2.0 5.0 0.00 0.00 0.00 76 1007.5
20260506125656 72 131 3.0 4.0 0.00 0.00 0.00 76 1008.0
20260506125651 72 131 3.0 4.0 0.00 0.00 0.00 76 1008.0
20260506125218 0 117 2.0 3.0 0.00 0.00 0.00 1.0
20260506125213 72 117 2.0 3.0 0.00 0.00 0.00 87 1008.1
20260506124256 73 166 2.0 3.0 0.00 0.00 0.00 61 1008.2
20260506123339 74 189 3.0 4.0 0.00 0.00 0.00 59 1008.3
20260506122421 74 209 2.0 3.0 0.00 0.00 0.00 54 1008.3
20260506121948 73 217 3.0 4.0 0.00 0.00 0.00 67 1008.4
20260506121942 73 217 3.0 4.0 0.00 0.00 0.00 67 1008.4
20260506121514 72 187 4.0 6.0 0.00 0.00 0.00 68 1008.4
20260506121509 72 187 4.0 6.0 0.00 0.00 0.00 68 1008.4
20260506121504 72 187 4.0 6.0 0.00 0.00 0.00 68 1008.4
20260506121030 72 169 3.0 5.0 0.00 0.00 0.00 71 1008.4
20260506121025 72 169 3.0 5.0 0.00 0.00 0.00 71 1008.4
20260506115629 73 145 5.0 7.0 0.00 0.00 0.00 58 1008.5
20260506114713 75 216 3.0 4.0 0.00 0.00 0.00 54 1008.5
20260506113759 76 296 2.0 3.0 0.00 0.00 0.00 57 1008.6
20260506113754 76 296 2.0 3.0 0.00 0.00 0.00 57 1008.6
20260506113315 77 228 2.0 5.0 0.00 0.00 0.00 61 1008.6
20260506111439 75 287 2.0 3.0 0.00 0.00 0.00 62 1008.8
20260506111005 75 341 2.0 3.0 0.00 0.00 0.00 71 1008.9
20260506111000 75 341 2.0 3.0 0.00 0.00 0.00 71 1008.9
20260506110521 75 267 1.0 2.0 0.00 0.00 0.00 67 1008.9
20260506110042 76 338 2.0 3.0 0.00 0.00 0.00 59 1008.9
20260506105608 77 339 2.0 3.0 0.00 0.00 0.00 58 1009.0
20260506105603 77 339 2.0 3.0 0.00 0.00 0.00 58 1009.0
20260506105124 76 211 2.0 4.0 0.00 0.00 0.00 63 1009.0
20260506104211 75 329 1.0 2.0 0.00 0.00 0.00 72 10.0
20260506104206 75 329 1.0 2.0 0.00 0.00 0.00 72 1009.1
20260506103253 75 316 2.0 3.0 0.00 0.00 0.00 73 1009.1
20260506103248 75 316 2.0 3.0 0.00 0.00 0.00 73 1009.1
20260506102814 75 291 1.0 3.0 0.00 0.00 0.00 71 1009.4
20260506102809 75 291 1.0 3.0 0.00 0.00 0.00 71 1009.4
20260506102330 75 255 2.0 4.0 0.00 0.00 0.00 83 1009.5
20260506101851 75 241 2.0 4.0 0.00 0.00 0.00 66 1009.4
20260506100454 75 178 2.0 5.0 0.00 0.00 0.00 80 1009.6
20260506100020 74 197 2.0 5.0 0.00 0.00 0.00 80 1009.6
20260506100015 74 197 2.0 5.0 0.00 0.00 0.00 80 1009.6
20260506095541 74 211 2.0 3.0 0.00 0.00 0.00 85 1009.5
20260506095536 74 211 2.0 3.0 0.00 0.00 0.00 85 1009.5
20260506095103 73 205 2.0 4.0 0.00 0.00 0.00 84 1009.5
20260506095057 73 205 2.0 4.0 0.00 0.00 0.00 84 1009.5
20260506094144 73 228 3.0 4.0 0.00 0.00 0.00 84 1009.6
20260506093222 74 188 1.0 2.0 0.00 0.00 0.00 84 1009.5
20260506092309 72 279 3.0 6.0 0.00 0.00 0.00 10 1009.5
20260506092306 72 279 3.0 6.0 0.00 0.00 0.00 10 1009.5
20260506091826 71 237 2.0 5.0 0.00 0.00 0.00 94 1009.5
20260506091352 70 236 1.0 2.0 0.00 0.00 0.00 10 1009.6
20260506091347 70 236 1.0 2.0 0.00 0.00 0.00 10 1009.6
20260506090908 70 225 4.0 5.0 0.00 0.00 0.00 97 1009.6
20260506090430 69 228 3.0 5.0 0.00 0.00 0.00 10 1009.6
20260506085957 68 215 3.0 5.0 0.00 0.00 0.00 10 1009.6
20260506085951 68 215 3.0 5.0 0.00 0.00 0.00 10 1009.6
20260506085040 68 276 2.0 3.0 0.00 0.00 0.00 10 1009.5
20260506085034 68 276 2.0 3.0 0.00 0.00 0.00 10 1009.5
20260506084556 68 284 1.0 2.0 0.00 0.00 0.00 10 1009.5
20260506084123 68 284 2.0 2.0 0.00 0.00 0.00 10 1009.5
20260506084118 68 284 2.0 2.0 0.00 0.00 0.00 10 1009.5
20260506083644 69 276 2.0 3.0 0.00 0.00 0.00 10 1009.5
20260506083639 69 276 2.0 3.0 0.00 0.00 0.00 10 1009.5
20260506083205 68 277 2.0 4.0 0.00 0.00 0.00 10 100.9
20260506083201 68 277 2.0 4.0 0.00 0.00 0.00 10 1009.5
20260506082728 68 224 3.0 5.0 0.00 0.00 0.00 10 1009.4
20260506082722 68 224 3.0 5.0 0.00 0.00 0.00 10 1009.4
20260506080410 69 251 2.0 3.0 0.00 0.00 0.00 10 1009.6
20260506072709 66 278 1.0 3.0 0.00 0.00 0.00 10 1009.7
20260506072704 66 278 1.0 3.0 0.00 0.00 0.00 10 1009.7
20260506072231 64 285 2.0 3.0 0.00 0.00 0.00 10 1009.7
20260506072226 64 285 2.0 3.0 0.00 0.00 0.00 10 1009.7
20260506071315 61 302 2.0 3.0 0.00 0.00 0.00 10 1009.7
20260506071310 61 302 2.0 3.0 0.00 0.00 0.00 10 1009.7
20260506070837 60 332 2.0 5.0 0.00 0.00 0.00 10 1009.8
20260506070832 60 332 2.0 5.0 0.00 0.00 0.00 10 1009.8
20260506070354 61 328 2.0 3.0 0.00 0.00 0.00 10 1009.7
20260506062214 61 234 2.0 4.0 0.00 0.00 0.00 10 1009.5
20260506061259 59 223 3.0 5.0 0.00 0.00 0.00 10 1009.7
20260506051251 55 279 0.0 1.0 0.00 0.00 0.00 10 1009.6
20260506050818 55 280 0.0 0.0 0.00 0.00 0.00 10 1009.5
20260506050813 55 280 0.0 0.0 0.00 0.00 0.00 10 1009.5
20260506050336 55 224 1.0 2.0 0.00 0.00 0.00 10 1009.4
20260506044948 53 145 1.0 2.0 0.00 0.00 0.00 10 1009.5
20260506044944 53 145 1.0 2.0 0.00 0.00 0.00 10 1009.5
20260506044029 53 148 0.0 1.0 0.00 0.00 0.00 10 1009.4
20260506043551 53 135 0.0 0.0 0.00 0.00 0.00 10 1009.3
20260506042637 53 135 0.0 2.0 0.00 0.00 0.00 10 1009.1
20260506042200 52 135 1.0 1.0 0.00 0.00 0.00 10 1009.0
20260506041245 52 135 0.0 0.0 0.00 0.00 0.00 10 1009.0
20260506040330 52 180 0.0 0.0 0.00 0.00 0.00 10 1008.8
20260506035857 52 180 0.0 0.0 0.00 0.00 0.00 10 1008.7
20260506035852 52 180 0.0 0.0 0.00 0.00 0.00 10 1008.7
20260506035420 52 180 0.0 0.0 0.00 0.00 0.00 10 1008.7
20260506035415 52 180 0.0 0.0 0.00 0.00 0.00 10 1008.7
20260506034023 52 225 0.0 0.0 0.00 0.00 0.00 10 1008.7
20260506033546 52 225 0.0 0.0 0.00 0.00 0.00 10 1008.6
20260506033108 53 225 0.0 0.0 0.00 0.00 0.00 10 1008.7
20260506032631 53 213 1.0 2.0 0.00 0.00 0.00 10 1008.7
20260506032154 53 225 2.0 2.0 0.00 0.00 0.00 10 1008.7
20260506031716 53 225 2.0 2.0 0.00 0.00 0.00 10 1008.7
20260506031244 53 225 2.0 2.0 0.00 0.00 0.00 10 1008.8
20260506031239 53 225 2.0 2.0 0.00 0.00 0.00 10 1008.8
20260506025852 53 225 2.0 3.0 0.00 0.00 0.00 10 1008.6
20260506025414 53 225 2.0 3.0 0.00 0.00 0.00 10 1008.6
20260506025410 53 225 2.0 3.0 0.00 0.00 0.00 10 1008.6
20260506024937 53 228 2.0 3.0 0.00 0.00 0.00 10 1008.6
20260506024933 53 228 2.0 3.0 0.00 0.00 0.00 10 1008.6
20260506024455 53 225 1.0 3.0 0.00 0.00 0.00 10 1008.6
20260506024022 53 225 1.0 2.0 0.00 0.00 0.00 10 1008.4
20260506024017 53 225 1.0 2.0 0.00 0.00 0.00 10 1008.4
20260506023540 53 225 2.0 2.0 0.00 0.00 0.00 10 1008.3
20260506022630 53 225 2.0 2.0 0.00 0.00 0.00 10 1008.3
20260506022625 53 225 2.0 2.0 0.00 0.00 0.00 10 1008.3
20260506022148 53 225 2.0 2.0 0.00 0.00 0.00 10 1008.2
20260506021715 53 221 1.0 2.0 0.00 0.00 0.00 10 1008.1
20260506021711 53 221 1.0 2.0 0.00 0.00 0.00 10 1008.1
20260506021233 54 180 1.0 2.0 0.00 0.00 0.00 10 1008.0
20260506020756 54 203 1.0 2.0 0.00 0.00 0.00 10 1008.2
20260506020323 54 190 2.0 2.0 0.00 0.00 0.00 10 1008.3
20260506020319 54 190 2.0 2.0 0.00 0.00 0.00 10 1008.3
20260506015841 54 212 2.0 3.0 0.00 0.00 0.00 10 1008.2
20260506015404 55 222 2.0 2.0 0.00 0.00 0.00 10 1008.2
20260506014454 55 225 2.0 2.0 0.00 0.00 0.00 10 1008.3
20260506014449 55 225 2.0 2.0 0.00 0.00 0.00 10 1008.3
20260506014017 55 225 2.0 3.0 0.00 0.00 0.00 10 1008.4
20260506014011 55 225 2.0 3.0 0.00 0.00 0.00 10 1008.4
20260506013534 56 242 1.0 2.0 0.00 0.00 0.00 10 1008.2
20260506013057 56 328 3.0 6.0 0.00 0.00 0.00 10 1007.8
20260506012142 56 307 1.0 2.0 0.00 0.00 0.00 10 1008.2
20260506011709 56 255 1.0 2.0 0.00 0.00 0.00 10 1008.3
20260506011704 56 255 1.0 2.0 0.00 0.00 0.00 10 1008.3
20260506011227 56 223 0.0 0.0 0.00 0.00 0.00 10 1008.2
20260506010754 56 269 0.0 2.0 0.00 0.00 0.00 10 1007.9
20260506010749 56 269 0.0 2.0 0.00 0.00 0.00 10 1007.9
20260506010317 56 289 1.0 3.0 0.00 0.00 0.00 10 1007.8
20260506010312 56 289 1.0 3.0 0.00 0.00 0.00 10 1007.8
20260506005834 56 296 1.0 2.0 0.00 0.00 0.00 10 1007.9
20260506005357 56 285 0.0 1.0 0.00 0.00 0.00 10 1007.9
20260506004924 56 235 1.0 2.0 0.00 0.00 0.00 10 1007.9
20260506004919 56 235 1.0 2.0 0.00 0.00 0.00 10 1007.9
20260506004442 56 252 1.0 2.0 0.00 0.00 0.00 10 1007.9
20260506004009 56 279 1.0 2.0 0.00 0.00 0.00 10 1007.9
20260506004004 56 279 1.0 2.0 0.00 0.00 0.00 10 1007.9
20260506003527 57 306 1.0 2.0 0.00 0.00 0.00 10 1007.7
20260506003049 57 260 1.0 2.0 0.00 0.00 0.00 10 1007.7
20260506002612 57 229 1.0 3.0 0.00 0.00 0.00 10 1007.7
20260506001702 56 221 3.0 3.0 0.00 0.00 0.00 10 1007.8
20260506001657 56 221 3.0 3.0 0.00 0.00 0.00 10 1007.8
20260505235832 56 138 3.0 4.0 0.00 0.00 0.00 10 1007.8
20260505235827 56 138 3.0 4.0 0.00 0.00 0.00 10 1007.8
20260505235350 56 141 3.0 5.0 0.00 0.00 0.00 10 1007.7
20260505234917 55 138 2.0 3.0 0.00 0.00 0.00 10 1007.8
20260505234912 55 138 2.0 3.0 0.00 0.00 0.00 10 1007.8
20260505234435 55 141 2.0 3.0 0.00 0.00 0.00 10 1007.8
20260505234002 54 129 2.0 3.0 0.00 0.00 0.00 10 1007.8
20260505233957 54 129 2.0 3.0 0.00 0.00 0.00 10 1007.8
20260505232605 54 135 3.0 5.0 0.00 0.00 0.00 10 1007.7
20260505231650 54 135 3.0 5.0 0.00 0.00 0.00 10 1007.8
20260505230740 56 132 2.0 4.0 0.00 0.00 0.00 10 1007.8
20260505230735 56 132 2.0 4.0 0.00 0.00 0.00 10 1007.8
20260505225825 57 135 2.0 3.0 0.00 0.00 0.00 10 1007.8
20260505225820 57 135 2.0 3.0 0.00 0.00 0.00 10 1007.8
20260505225347 57 132 2.0 3.0 0.00 0.00 0.00 10 1007.7
20260505225344 57 132 2.0 3.0 0.00 0.00 0.00 10 1007.7
20260505224427 57 26 0.0 1.0 0.00 0.00 0.00 10 1007.8
20260505223955 57 233 1.0 3.0 0.00 0.00 0.00 88
20260505223950 57 233 1.0 3.0 0.00 0.00 0.00 10 1007.9
20260505223512 57 170 2.0 3.0 0.00 0.00 0.00 10 1007.7
20260505223035 57 135 4.0 5.0 0.00 0.00 0.00 10 1006.8
20260505221642 57 135 5.0 7.0 0.00 0.00 0.00 10 1006.5
20260505221205 57 135 5.0 6.0 0.00 0.00 0.00 10 1006.5
20260505220727 57 132 5.0 7.0 0.00 0.00 0.00 10 1006.5
20260505220250 57 132 5.0 7.0 0.00 0.00 0.00 10 1006.5
20260505215812 57 125 4.0 5.0 0.00 0.00 0.00 10 1006.5
20260505215335 56 128 3.0 3.0 0.00 0.00 0.00 10 1006.5
20260505214857 56 129 2.0 3.0 0.00 0.00 0.00 10 1006.6
20260505213027 56 135 3.0 3.0 0.00 0.00 0.00 10 1006.8
20260505212550 57 135 3.0 3.0 0.00 0.00 0.00 10 1006.8
20260505211635 57 132 4.0 6.0 0.00 0.00 0.00 10 1006.7
20260505211157 57 132 4.0 5.0 0.00 0.00 0.00 10 1006.8
20260505210720 56 135 4.0 5.0 0.00 0.00 0.00 10 1006.8
20260505210243 56 135 4.0 5.0 0.00 0.00 0.00 10 1006.8
20260505205805 57 135 4.0 5.0 0.00 0.00 0.00 10 1006.8
20260505205327 57 135 3.0 4.0 0.00 0.00 0.00 10 1006.8
20260505204850 58 135 4.0 5.0 0.00 0.00 0.00 10 1006.9
20260505204412 58 132 4.0 5.0 0.00 0.00 0.00 10 1006.8
20260505203935 59 135 4.0 5.0 0.00 0.00 0.00 10 1006.9
20260505203502 60 135 5.0 5.0 0.00 0.00 0.00 10 1006.8
20260505203457 60 135 5.0 5.0 0.00 0.00 0.00 10 1006.8
20260505202547 58 135 4.0 5.0 0.00 0.00 0.00 10 1006.7
20260505202542 58 135 4.0 5.0 0.00 0.00 0.00 10 1006.7
20260505201627 58 135 3.0 5.0 0.00 0.00 0.00 10 1006.7
20260505201150 57 150 3.0 3.0 0.00 0.00 0.00 10 1006.7
20260505200717 57 173 3.0 3.0 0.00 0.00 0.00 10 1006.7
20260505200712 57 173 3.0 3.0 0.00 0.00 0.00 10 1006.7
20260505200235 57 139 2.0 3.0 0.00 0.00 0.00 10 1006.8
20260505195757 57 135 2.0 2.0 0.00 0.00 0.00 10 1006.8
20260505195325 57 139 1.0 2.0 0.00 0.00 0.00 10 1006.7
20260505195320 57 139 1.0 2.0 0.00 0.00 0.00 10 1006.7
20260505194843 57 131 3.0 5.0 0.00 0.00 0.00 10 1006.8
20260505193927 58 147 2.0 4.0 0.00 0.00 0.00 10 1006.8
20260505192057 60 164 1.0 2.0 0.00 0.00 0.00 10 1006.7
20260505190227 61 164 0.0 0.0 0.00 0.00 0.00 10 1006.7
20260505185749 62 150 0.0 2.0 0.00 0.00 0.00 10 1006.6
20260505185316 62 188 1.0 3.0 0.00 0.00 0.00 10 1006.7
20260505185312 62 188 1.0 3.0 0.00 0.00 0.00 10 1006.7
20260505184838 62 237 2.0 3.0 0.00 0.00 0.00 10 0.1
20260505184834 62 237 2.0 3.0 0.00 0.00 0.00 10 1006.6
20260505184435 62 198 1.0 2.0 0.00 0.00 0.00 10 1006.7
20260505184356 62 198 1.0 2.0 0.00 0.00 0.00 10 1006.7
20260505183008 62 144 1.0 2.0 0.00 0.00 0.00 10 1006.4
20260505182525 61 312 1.0 2.0 0.00 0.00 0.00 10 1006.4
20260505182048 61 247 2.0 3.0 0.00 0.00 0.00 10 1006.4
20260505181615 61 158 1.0 2.0 0.00 0.00 0.00 10 1006.4
20260505181610 61 158 1.0 2.0 0.00 0.00 0.00 10 1006.4
20260505181137 61 135 2.0 3.0 0.00 0.00 0.00 10 1006.2
20260505181132 61 135 2.0 3.0 0.00 0.00 0.00 10 1006.2
20260505180655 61 135 2.0 3.0 0.00 0.00 0.00 10 1006.1
20260505180217 62 135 2.0 3.0 0.00 0.00 0.00 10 1006.2
20260505175739 62 135 2.0 3.0 0.00 0.00 0.00 10 1006.2
20260505175305 63 135 2.0 3.0 0.00 0.00 0.00 10 1006.1
20260505174351 64 135 3.0 4.0 0.00 0.00 0.00 10 1006.2
20260505174346 64 135 3.0 4.0 0.00 0.00 0.00 10 1006.2
20260505173913 64 135 2.0 3.0 0.00 0.00 0.00 10 1.0
20260505173908 64 135 2.0 3.0 0.00 0.00 0.00 10 1006.2
20260505172520 65 135 3.0 4.0 0.00 0.00 0.00 10 1006.3
20260505172515 65 135 3.0 4.0 0.00 0.00 0.00 10 1006.3
20260505172037 65 135 3.0 4.0 0.00 0.00 0.00 99 1006.3
20260505171559 66 135 4.0 4.0 0.00 0.00 0.00 99 1006.3
20260505171122 67 135 4.0 5.0 0.00 0.00 0.00 94 1006.3
20260505165732 66 135 4.0 4.0 0.00 0.00 0.00 10
20260505165728 66 135 4.0 4.0 0.00 0.00 0.00 10 1006.4
20260505164812 68 129 3.0 4.0 0.00 0.00 0.00 10 1006.4
20260505164334 68 135 3.0 4.0 0.00 0.00 0.00 97 1006.4
20260505163418 68 135 3.0 4.0 0.00 0.00 0.00 98 1006.4
20260505163018 69 135 3.0 4.0 0.00 0.00 0.00 93 1006.6
20260505162940 69 135 3.0 4.0 0.00 0.00 0.00 93 1006.6
20260505162507 70 135 3.0 3.0 0.00 0.00 0.00 71 1006.6
20260505160151 73 168 4.0 5.0 0.00 0.00 0.00 46 1006.8